GW1938 Weather Reports


time (UTC)temp
F
wind
direction
speed
knots
gust
knots
rain 1hr
in
rain 24hr
in
rain mn
in
humidity
%
barometer
mb
20260903130921 67 237 8.7 15.6 0.00 0.00 0.00 50 1016.3
20260903130419 66 238 7.8 12.2 0.00 0.00 0.00 52 1016.2
20260903125412 66 246 8.7 13.0 0.00 0.00 0.00 55 1016.0
20260903124909 67 253 8.7 13.9 0.00 0.00 0.00 54 1015.9
20260903124406 66 255 8.7 11.3 0.00 0.00 0.00 56 1015.9
20260903123359 66 263 7.0 10.4 0.00 0.00 0.00 64 1015.9
20260903122856 65 267 6.1 8.7 0.00 0.00 0.00 68 1015.8
20260903122354 65 289 4.3 7.8 0.00 0.00 0.00 70 1015.7
20260903121852 66 290 4.3 7.0 0.00 0.00 0.00 70 1015.7
20260903121350 66 273 5.2 7.8 0.00 0.00 0.00 68 1015.7
20260903120845 66 268 5.2 7.8 0.00 0.00 0.00 69 1015.8
20260903120343 66 271 6.1 7.8 0.00 0.00 0.00 61 1015.7
20260903115336 67 296 4.3 6.1 0.00 0.00 0.00 58 1015.5
20260903114833 67 302 4.3 7.8 0.00 0.00 0.00 55 1015.5
20260903114330 67 302 5.2 7.0 0.00 0.00 0.00 55 1015.5
20260903113828 66 307 5.2 7.8 0.00 0.00 0.00 58 1015.6
20260903113325 67 309 6.1 9.6 0.00 0.00 0.00 57 1015.6
20260903112822 67 310 6.1 8.7 0.00 0.00 0.00 60 1015.4
20260903112319 67 302 4.3 10.4 0.00 0.00 0.00 62 1015.3
20260903111313 68 281 6.1 10.4 0.00 0.00 0.00 58 1015.0
20260903110812 67 294 4.3 9.6 0.00 0.00 0.00 59 1015.0
20260903110310 68 301 4.3 9.6 0.00 0.00 0.00 56 1015.1
20260903104801 68 292 5.2 9.6 0.00 0.00 0.00 57 1015.0
20260903103756 68 283 7.0 11.3 0.00 0.00 0.00 58 1014.7
20260903102750 68 262 7.0 10.4 0.00 0.00 0.00 58 1014.6
20260903102248 68 261 7.8 10.4 0.00 0.00 0.00 57 1014.6
20260903101242 68 266 6.1 8.7 0.00 0.00 0.00 60 1014.4
20260903100741 68 266 6.1 8.7 0.00 0.00 0.00 59 1014.3
20260903095734 68 263 7.0 9.6 0.00 0.00 0.00 61 1014.2
20260903095233 68 260 7.0 10.4 0.00 0.00 0.00 61 1014.0
20260903094227 68 268 7.0 12.2 0.00 0.00 0.00 62 1013.7
20260903093726 69 273 7.0 13.0 0.00 0.00 0.00 58 1013.6
20260903093225 69 273 7.8 12.2 0.00 0.00 0.00 57 1013.5
20260903090708 70 265 7.8 12.2 0.00 0.00 0.00 51 1013.1
20260903090206 70 270 7.8 12.2 0.00 0.00 0.00 54 1013.0
20260903085705 71 275 8.7 13.9 0.00 0.00 0.00 53 1012.9
20260903084700 72 284 7.8 13.9 0.00 0.00 0.00 45 1012.7
20260903084159 72 289 7.8 16.5 0.00 0.00 0.00 43 1012.7
20260903082648 72 307 7.8 13.9 0.00 0.00 0.00 45 1012.4
20260903082147 72 304 7.8 14.8 0.00 0.00 0.00 46 1012.3
20260903081141 71 303 7.8 13.0 0.00 0.00 0.00 47 1012.1
20260903080638 72 298 8.7 13.9 0.00 0.00 0.00 47 1012.0
20260903080133 72 294 7.0 10.4 0.00 0.00 0.00 47 1011.9
20260903075631 71 290 6.1 11.3 0.00 0.00 0.00 48 1011.7
20260903075129 72 285 7.0 12.2 0.00 0.00 0.00 51 1011.5
20260903074628 71 276 8.7 13.9 0.00 0.00 0.00 50 1011.4
20260903073623 73 287 7.0 13.9 0.00 0.00 0.00 43 1011.1
20260903073121 73 284 7.8 14.8 0.00 0.00 0.00 39 1011.0
20260903072618 74 301 5.2 10.4 0.00 0.00 0.00 44 1011.1
20260903072116 74 296 6.1 12.2 0.00 0.00 0.00 42 1011.0
20260903071614 74 306 7.8 13.0 0.00 0.00 0.00 40 1010.9
20260903070608 75 302 6.1 11.3 0.00 0.00 0.00 40 1010.8
20260903070103 76 310 7.8 14.8 0.00 0.00 0.00 38 1010.7
20260903065601 76 305 9.6 17.4 0.00 0.00 0.00 38 1010.6
20260903065100 76 306 12.2 19.1 0.00 0.00 0.00 36 1010.5
20260903064557 76 305 12.2 21.7 0.00 0.00 0.00 37 1010.3
20260903064056 76 304 9.6 14.8 0.00 0.00 0.00 40 1010.4
20260903063555 75 301 7.8 13.9 0.00 0.00 0.00 41 1010.3
20260903063054 76 301 7.0 11.3 0.00 0.00 0.00 42 1010.2
20260903062553 76 307 7.0 13.9 0.00 0.00 0.00 39 1010.1
20260903061046 77 305 10.4 18.2 0.00 0.00 0.00 36 1009.8
20260903060041 77 303 8.7 16.5 0.00 0.00 0.00 39 1009.7
20260903055538 78 306 8.7 18.2 0.00 0.00 0.00 36 1009.6
20260903055037 78 306 9.6 17.4 0.00 0.00 0.00 38 1009.6
20260903054534 77 295 10.4 19.1 0.00 0.00 0.00 39 1009.5
20260903054031 77 295 7.8 14.8 0.00 0.00 0.00 41 1009.6
20260903053527 76 292 7.0 14.8 0.00 0.00 0.00 42 1009.5
20260903053024 77 294 7.8 17.4 0.00 0.00 0.00 40 1009.4
20260903052523 76 288 7.8 14.8 0.00 0.00 0.00 43 1009.3
20260903051518 76 271 9.6 17.4 0.00 0.00 0.00 42 1009.3
20260903045507 77 275 10.4 16.5 0.00 0.00 0.00 41 1009.2
20260903045006 78 295 7.8 14.8 0.00 0.00 0.00 38 1009.1
20260903044503 77 281 10.4 16.5 0.00 0.00 0.00 43 1009.0
20260903044003 77 273 10.4 18.2 0.00 0.00 0.00 42 1009.0
20260903043500 77 284 9.6 17.4 0.00 0.00 0.00 40 1008.9
20260903042957 78 287 7.8 15.6 0.00 0.00 0.00 40 1008.8
20260903042456 80 306 8.7 15.6 0.00 0.00 0.00 35 1008.7
20260903041953 80 302 14.8 26.9 0.00 0.00 0.00 34 1008.6
20260903041450 80 305 13.9 22.6 0.00 0.00 0.00 34 1008.5
20260903040940 79 293 11.3 18.2 0.00 0.00 0.00 35 1008.6
20260903040439 77 286 9.6 15.6 0.00 0.00 0.00 40 1008.6
20260903035938 77 278 11.3 18.2 0.00 0.00 0.00 42 1008.6
20260903035434 77 285 9.6 17.4 0.00 0.00 0.00 42 1008.6
20260903034920 77 283 10.4 20.0 0.00 0.00 0.00 38 1008.4
20260903034419 78 291 9.6 19.1 0.00 0.00 0.00 40 1008.3
20260903033918 78 290 9.6 18.2 0.00 0.00 0.00 38 1008.3
20260903033416 78 294 9.6 17.4 0.00 0.00 0.00 41 1008.2
20260903032412 77 288 11.3 20.0 0.00 0.00 0.00 40 1008.2
20260903031904 79 292 12.2 23.5 0.00 0.00 0.00 36 1008.2
20260903031403 78 280 14.8 24.3 0.00 0.00 0.00 36 1008.2
20260903025853 78 276 16.5 26.9 0.00 0.00 0.00 37 1008.1
20260903024847 78 282 13.9 30.4 0.00 0.00 0.00 39 1007.9
20260903024346 78 292 9.6 20.9 0.00 0.00 0.00 40 1008.1
20260903023843 78 284 13.0 27.8 0.00 0.00 0.00 38 1008.1
20260903023342 78 272 15.6 26.1 0.00 0.00 0.00 40 1008.1
20260903022840 77 270 16.5 26.1 0.00 0.00 0.00 39 1008.0
20260903022338 77 269 16.5 28.7 0.00 0.00 0.00 37 1007.9
20260903021835 77 284 11.3 21.7 0.00 0.00 0.00 41 1008.1
20260903021332 78 289 11.3 21.7 0.00 0.00 0.00 38 1008.1
20260903020821 78 285 13.9 25.2 0.00 0.00 0.00 39 1008.1
20260903020319 78 287 13.0 33.0 0.00 0.00 0.00 39 1008.1
20260903015817 78 270 14.8 31.3 0.00 0.00 0.00 36 1008.1
20260903015316 78 267 16.5 35.6 0.00 0.00 0.00 36 1008.1
20260903014815 78 279 12.2 24.3 0.00 0.00 0.00 38 1008.2
20260903014313 79 290 13.9 25.2 0.00 0.00 0.00 38 1008.2
20260903013255 78 292 8.7 19.1 0.00 0.00 0.00 40 1008.4
20260903012250 80 297 9.6 17.4 0.00 0.00 0.00 35 1008.3
20260903011749 80 301 9.6 17.4 0.00 0.00 0.00 35 1008.3
20260903010240 81 310 22.6 31.3 0.00 0.00 0.00 32 1008.1
20260903005739 81 304 16.5 27.8 0.00 0.00 0.00 34 1008.2
20260903005237 81 302 8.7 15.6 0.00 0.00 0.00 36 1008.4
20260903004734 80 299 11.3 20.9 0.00 0.00 0.00 37 1008.4
20260903004231 80 307 12.2 22.6 0.00 0.00 0.00 34 1008.4
20260903003730 80 309 18.2 27.8 0.00 0.00 0.00 33 1008.4
20260903003226 80 307 15.6 24.3 0.00 0.00 0.00 34 1008.3
20260903002721 80 307 17.4 26.9 0.00 0.00 0.00 36 1008.5
20260903002218 80 305 15.6 23.5 0.00 0.00 0.00 34 1008.3
20260903001716 78 305 14.8 27.8 0.00 0.00 0.00 35 1008.2
20260903001215 78 313 10.4 14.8 0.00 0.00 0.00 37 1008.5
20260903000712 77 326 9.6 15.6 0.00 0.00 0.00 42 1008.6
20260903000211 78 333 9.6 13.0 0.00 0.00 0.00 40 1008.6
20260902235200 78 339 14.8 19.1 0.00 0.00 0.00 40 1008.6
20260902234659 78 341 13.9 20.9 0.00 0.00 0.00 40 1008.6
20260902234158 78 339 13.0 18.2 0.00 0.00 0.00 40 1008.7
20260902232649 77 342 13.0 19.1 0.00 0.00 0.00 40 1008.8
20260902232148 77 344 13.0 20.9 0.00 0.00 0.00 41 1008.8
20260902231644 77 343 13.9 18.2 0.00 0.00 0.00 41 1009.0
20260902231141 77 343 14.8 20.9 0.00 0.00 0.00 40 1009.0
20260902230120 76 343 16.5 21.7 0.00 0.00 0.00 41 1009.0
20260902225614 76 339 16.5 21.7 0.00 0.00 0.00 42 1009.2
20260902225112 76 341 15.6 20.9 0.00 0.00 0.00 44 1009.2
20260902224608 75 342 17.4 22.6 0.00 0.00 0.00 44 1009.1
20260902224106 75 340 16.5 20.0 0.00 0.00 0.00 45 1009.1
20260902223552 74 342 14.8 20.0 0.00 0.00 0.00 46 1009.2
20260902223049 73 336 13.0 17.4 0.00 0.00 0.00 47 1009.3
20260902222546 73 335 9.6 13.0 0.00 0.00 0.00 50 1009.4
20260902222044 73 346 6.1 7.8 0.00 0.00 0.00 55 1009.5
20260902221544 72 4 4.3 6.1 0.00 0.00 0.00 59 1009.6
20260902221042 70 13 4.3 6.1 0.00 0.00 0.00 60 1009.6
20260902220541 69 20 4.3 6.1 0.00 0.00 0.00 61 1009.6
20260902220040 69 28 4.3 7.0 0.00 0.00 0.00 60 1009.6
20260902215036 68 33 4.3 7.0 0.00 0.00 0.00 59 1009.7
20260902214535 68 31 5.2 7.0 0.00 0.00 0.00 61 1009.7
20260902213531 68 23 6.1 8.7 0.00 0.00 0.00 57 1009.8
20260902213030 68 15 5.2 8.7 0.00 0.00 0.00 54 1009.8
20260902212528 68 11 6.1 7.8 0.00 0.00 0.00 56 1009.8
20260902211020 68 5 6.1 11.3 0.00 0.00 0.00 53 1009.8
20260902210519 68 11 7.8 14.8 0.00 0.00 0.00 52 1009.9
20260902210018 67 2 8.7 10.4 0.00 0.00 0.00 55 1009.8
20260902205508 66 1 6.1 8.7 0.00 0.00 0.00 57 1009.7
20260902205006 65 0 5.2 7.0 0.00 0.00 0.00 60 1009.8
20260902204504 66 355 6.1 9.6 0.00 0.00 0.00 58 1009.9
20260902204001 66 353 7.0 9.6 0.00 0.00 0.00 55 1009.9
20260902203500 66 3 7.8 10.4 0.00 0.00 0.00 57 1009.6
20260902202454 66 55 5.2 7.8 0.00 0.00 0.00 63 1009.8
20260902201951 65 69 3.5 6.1 0.00 0.00 0.00 59 1009.8
20260902201448 65 53 3.5 4.3 0.00 0.00 0.00 62 1009.9
20260902200947 64 19 3.5 5.2 0.00 0.00 0.00 62 1009.9
20260902200445 64 355 5.2 7.0 0.00 0.00 0.00 62 1010.0
20260902195942 64 1 7.0 7.8 0.00 0.00 0.00 62 1009.9
20260902195439 64 351 7.0 7.8 0.00 0.00 0.00 62 1009.9
20260902194434 64 5 7.0 8.7 0.00 0.00 0.00 63 1009.9
20260902193430 64 0 4.3 6.1 0.00 0.00 0.00 64 1009.9
20260902192923 64 351 5.2 7.8 0.00 0.00 0.00 68 1010.0
20260902192339 64 346 5.2 6.1 0.00 0.00 0.00 65 1010.0
20260902191837 64 15 3.5 6.1 0.00 0.00 0.00 63 1009.9
20260902191334 64 349 3.5 7.8 0.00 0.00 0.00 63 1010.0
20260902190832 64 336 1.7 3.5 0.00 0.00 0.00 63 1009.9
20260902185824 65 35 2.6 5.2 0.00 0.00 0.00 62 1010.1
20260902185323 64 41 4.3 9.6 0.00 0.00 0.00 64 1010.0
20260902184821 64 24 3.5 4.3 0.00 0.00 0.00 71 1010.1
20260902184320 64 79 2.6 4.3 0.00 0.00 0.00 70 1010.1
20260902183815 64 32 3.5 7.8 0.00 0.00 0.00 70 1010.3
20260902183312 64 1 5.2 8.7 0.00 0.00 0.00 68 1010.3
20260902182808 64 360 7.0 8.7 0.00 0.00 0.00 66 1010.2
20260902182306 64 353 6.1 7.8 0.00 0.00 0.00 66 1010.4
20260902181805 64 357 5.2 7.0 0.00 0.00 0.00 64 1010.3
20260902180748 65 322 3.5 4.3 0.00 0.00 0.00 61 1010.5
20260902180244 65 317 3.5 4.3 0.00 0.00 0.00 62 1010.5
20260902175743 65 333 2.6 3.5 0.00 0.00 0.00 64 1010.6
20260902175240 65 325 2.6 4.3 0.00 0.00 0.00 64 1010.7
20260902173726 65 310 3.5 4.3 0.00 0.00 0.00 65 1010.8
20260902173225 64 307 3.5 4.3 0.00 0.00 0.00 68 1010.9
20260902171213 64 333 7.0 8.7 0.00 0.00 0.00 67 1011.0
20260902170208 64 342 8.7 11.3 0.00 0.00 0.00 68 1010.9
20260902165703 64 345 7.8 10.4 0.00 0.00 0.00 70 1010.9
20260902165159 65 5 4.3 7.0 0.00 0.00 0.00 67 1010.9
20260902164656 65 337 4.3 7.0 0.00 0.00 0.00 62 1011.2
20260902164153 66 299 2.6 5.2 0.00 0.00 0.00 59 1011.5
20260902163650 65 317 3.5 6.1 0.00 0.00 0.00 59 1011.5
20260902163148 66 322 5.2 9.6 0.00 0.00 0.00 60 1011.7
20260902162645 66 325 6.1 10.4 0.00 0.00 0.00 61 1011.8
20260902162143 66 319 5.2 10.4 0.00 0.00 0.00 58 1011.7
20260902161641 66 309 7.0 10.4 0.00 0.00 0.00 57 1012.0
20260902161139 66 306 6.1 9.6 0.00 0.00 0.00 58 1011.9
20260902160637 66 303 5.2 7.8 0.00 0.00 0.00 56 1012.0
20260902160131 67 307 7.0 10.4 0.00 0.00 0.00 55 1011.9
20260902155629 66 316 7.8 10.4 0.00 0.00 0.00 56 1012.0
20260902155129 65 308 7.8 8.7 0.00 0.00 0.00 59 1012.0
20260902154122 65 312 6.1 7.8 0.00 0.00 0.00 60 1012.2
20260902153619 65 319 5.2 8.7 0.00 0.00 0.00 65 1012.3
20260902153116 65 318 4.3 6.1 0.00 0.00 0.00 60 1012.3
20260902152614 65 317 3.5 4.3 0.00 0.00 0.00 59 1012.3
20260902152111 65 316 3.5 4.3 0.00 0.00 0.00 58 1012.4
20260902151611 65 309 2.6 3.5 0.00 0.00 0.00 58 1012.4
20260902151109 65 292 2.6 4.3 0.00 0.00 0.00 58 1012.4
20260902145559 64 349 1.7 2.6 0.00 0.00 0.00 61 1012.5
20260902145056 64 338 2.6 3.5 0.00 0.00 0.00 61 1012.5
20260902144553 64 337 3.5 4.3 0.00 0.00 0.00 61 1012.6
20260902144052 64 335 4.3 7.8 0.00 0.00 0.00 60 1012.5
20260902143551 65 331 6.1 7.8 0.00 0.00 0.00 59 1012.5
20260902143049 65 332 6.1 7.8 0.00 0.00 0.00 57 1012.5
20260902142547 65 329 4.3 7.0 0.00 0.00 0.00 57 1012.5
20260902141542 66 312 5.2 6.1 0.00 0.00 0.00 55 1012.7
20260902141040 65 316 6.1 7.8 0.00 0.00 0.00 56 1012.8
20260902140538 0 320 7.0 9.6 0.00 0.00 0.00
20260902140037 65 322 7.0 9.6 0.00 0.00 0.00 60 1012.8
20260902135537 64 326 6.1 7.0 0.00 0.00 0.00 61 1012.7
20260902135035 64 328 7.0 9.6 0.00 0.00 0.00 61 1012.7
20260902134533 65 327 6.1 7.0 0.00 0.00 0.00 59 1012.8
20260902133528 65 319 4.3 6.1 0.00 0.00 0.00 59 1012.9
20260902133026 65 325 2.6 4.3 0.00 0.00 0.00 56 1012.9
20260902132525 66 324 2.6 7.0 0.00 0.00 0.00 57 1012.8
20260902132024 66 317 4.3 5.2 0.00 0.00 0.00 58 1012.9
20260902131523 66 317 4.3 7.0 0.00 0.00 0.00 57 1012.9